This is the latest recevied weather packets stored in our database for station/object VK5FR. If no packets are shown the sender has not sent any weather packets the latest 10 day(s).
| Time | Temp. | Humidity | Pressure | Rain* | Wind** | Luminosity | Snow |
|---|---|---|---|---|---|---|---|
| 1777519530 | 25.56° C | 32% | 1018.5 hPa | 0 mm | - | - | - |
| 1777519226 | 25.56° C | 30% | 1018.8 hPa | 0 mm | - | - | - |
| 1777518922 | 25.56° C | 29% | 1018.7 hPa | 0 mm | - | - | - |
| 1777518618 | 25.56° C | 30% | 1018.8 hPa | 0 mm | - | - | - |
| 1777518315 | 25.56° C | 32% | 1018.9 hPa | 0 mm | - | - | - |
| 1777518010 | 26.11° C | 31% | 1019.1 hPa | 0 mm | - | - | - |
| 1777517707 | 25.56° C | 32% | 1019 hPa | 0 mm | - | - | - |
| 1777517403 | 25.56° C | 32% | 1019.1 hPa | 0 mm | - | - | - |
| 1777517097 | 25.56° C | 33% | 1019.1 hPa | 0 mm | - | - | - |
| 1777516794 | 25.56° C | 34% | 1019.3 hPa | 0 mm | - | - | - |
| 1777516490 | 25.56° C | 34% | 1019.4 hPa | 0 mm | - | - | - |
| 1777516185 | 25° C | 40% | 1019.4 hPa | 0 mm | - | - | - |
| 1777515884 | 25° C | 42% | 1019.4 hPa | 0 mm | - | - | - |
| 1777515579 | 25° C | 42% | 1019.6 hPa | 0 mm | - | - | - |
| 1777515276 | 24.44° C | 43% | 1019.5 hPa | 0 mm | - | - | - |
| 1777514972 | 25° C | 40% | 1019.8 hPa | 0 mm | - | - | - |
| 1777514669 | 25° C | 41% | 1019.8 hPa | 0 mm | - | - | - |
| 1777514366 | 25.56° C | 40% | 1019.8 hPa | 0 mm | - | - | - |
| 1777514063 | 25.56° C | 36% | 1019.7 hPa | 0 mm | - | - | - |
| 1777513760 | 26.11° C | 33% | 1019.8 hPa | 0 mm | - | - | - |
| 1777513458 | 25.56° C | 33% | 1019.7 hPa | 0 mm | - | - | - |
| 1777513154 | 25.56° C | 32% | 1019.9 hPa | 0 mm | - | - | - |
| 1777512849 | 25.56° C | 31% | 1019.8 hPa | 0 mm | - | - | - |
| 1777512547 | 25.56° C | 29% | 1019.9 hPa | 0 mm | - | - | - |
| 1777512243 | 26.11° C | 30% | 1019.9 hPa | 0 mm | - | - | - |
* Rain latest hour (hover to see other rain measurements)
** Current wind speed in m/s (hover to see current wind gust speed)